Home   Weather   Brentwood   Past weeks

Flag for United Kingdom Past Weather in Brentwood, England, United Kingdom — Yesterday and Last 2 Weeks

Now
46 °F

Cool.


Feels Like: 39 °F
Forecast: 35 / 50 °F
Wind: 16 mph from North

Location: Gravesend-Broadness

Current Time: Apr 25, 2017 at 7:55:58 pm

Latest Report: Apr 25, 2017 at 7:00 pm


Visibility: N/A

Pressure: 29.91 "Hg

Humidity: 56%

Dew Point: 31 °F

Location of BrentwoodLocation

Past Weather in Brentwood — Graph

°F

Brentwood Temperature Yesterday

Maximum temperature yesterday: 57 °F (at 12:50 pm)
Minimum temperature yesterday: 45 °F (at 4:00 am)
Average temperature yesterday: 50 °F

High & Low Weather Summary for the Past Weeks

 TemperatureHumidityPressure
High60 °F (Apr 23, 5:00 pm)96% (Apr 21, 3:00 am)30.53 "Hg (Apr 21, 3:00 am)
Low37 °F (Apr 25, 5:00 am)35% (Apr 25, 2:00 pm)29.86 "Hg (Apr 24, 6:00 pm)
Average51 °F68%30.21 "Hg
* Reported Apr 20 10:00 pm — Apr 25 6:00 pm, Brentwood, Weather by CustomWeather, © 2017

Note: Actual official high and low records may vary slightly from our data, if they occured in-between our weather recording intervals... More about our weather records

Advertising

Brentwood Weather History for the Previous 24 Hours

Scroll right to see more
 ConditionsComfort  
Time TempWeatherWind HumidityBarometerVisibility
6:00 pm
Tue, Apr 25
48 °FCool.7 mph43%29.90 "HgN/A
5:00 pm51 °FCool.8 mph39%29.90 "HgN/A
4:00 pm52 °FCool.9 mph36%29.91 "HgN/A
3:00 pm51 °FCool.10 mph41%29.93 "HgN/A
2:00 pm49 °FCool.10 mph35%29.93 "HgN/A
12:50 pm46 °FCool.8 mph41%29.93 "HgN/A
12:00 pm47 °FCool.9 mph42%29.93 "HgN/A
11:00 am46 °FCool.7 mph49%29.93 "HgN/A
10:00 am45 °FQuite cool.8 mph55%29.93 "HgN/A
9:00 am42 °FQuite cool.9 mph63%29.93 "HgN/A
8:00 am39 °FChilly.12 mph68%29.93 "HgN/A
7:00 am38 °FChilly.12 mph70%29.91 "HgN/A
6:00 am37 °FChilly.13 mph69%29.90 "HgN/A
5:00 am37 °FChilly.10 mph70%29.89 "HgN/A
4:00 am38 °FChilly.12 mph68%29.89 "HgN/A
3:00 am39 °FChilly.14 mph66%29.89 "HgN/A
2:00 am41 °FQuite cool.15 mph61%29.90 "HgN/A
12:50 am42 °FQuite cool.16 mph54%29.90 "HgN/A
12:00 am44 °FQuite cool.14 mph52%29.90 "HgN/A
11:00 pm
Mon, Apr 24
47 °FCool.16 mph46%29.90 "HgN/A
10:00 pm49 °FCool.12 mph54%29.90 "HgN/A
9:00 pm49 °FCool.10 mph73%29.88 "HgN/A
8:00 pm49 °FCool.7 mph81%29.88 "HgN/A
7:00 pm51 °FCool.7 mph84%29.88 "HgN/A
Weather by CustomWeather, © 2017

See weather overviewHow to use our weather pages